| time (UTC) | temp F | wind direction | speed MPH | gust MPH | rain 1hr in | rain 24hr in | rain mn in | humidity % | barometer mb |
| 20260505153105 | 77 | 264 | 9.0 | 16.0 | 0.00 | 0.00 | 0.00 | 51 | 1010.4 |
| 20260505151558 | 76 | 192 | 10.0 | 16.0 | 0.00 | 0.00 | 0.00 | 49 | 1010.2 |
| 20260505130109 | 66 | 224 | 8.0 | 11.0 | 0.00 | 0.00 | 0.00 | 63 | 1011.7 |
| 20260505124605 | 65 | 0 | 0.0 | 0.0 | 0.00 | 0.00 | 0.00 | 69 | 1011.7 |
| 20260505123112 | 63 | 0 | 0.0 | 0.0 | 0.00 | 0.00 | 0.00 | 75 | 1011.8 |
| 20260505121556 | 60 | 0 | 0.0 | 4.0 | 0.00 | 0.00 | 0.00 | 77 | 1011.5 |
| 20260505120108 | 57 | 24 | 2.0 | 3.0 | 0.00 | 0.00 | 0.00 | 79 | 1011.5 |
| 20260505114558 | 56 | 23 | 1.0 | 3.0 | 0.00 | 0.00 | 0.00 | 79 | 1011.5 |
| 20260505113059 | 54 | 21 | 2.0 | 4.0 | 0.00 | 0.00 | 0.00 | 82 | 1011.3 |
| 20260505111557 | 52 | 43 | 4.0 | 6.0 | 0.00 | 0.00 | 0.00 | 84 | 1011.1 |
| 20260505110106 | 50 | 46 | 2.0 | 4.0 | 0.00 | 0.00 | 0.00 | 85 | 1011.2 |
| 20260505101556 | 51 | 3 | 4.0 | 6.0 | 0.00 | 0.00 | 0.00 | 83 | 1010.9 |
| 20260505100058 | 51 | 359 | 1.0 | 2.0 | 0.00 | 0.00 | 0.00 | 82 | 1010.4 |
| 20260505094557 | 52 | 8 | 2.0 | 3.0 | 0.00 | 0.00 | 0.00 | 82 | 1010.6 |
| 20260505093054 | 52 | 261 | 2.0 | 6.0 | 0.00 | 0.00 | 0.00 | 81 | 1010.5 |
| 20260505091619 | 52 | 33 | 4.0 | 6.0 | 0.00 | 0.00 | 0.00 | 81 | 1010.3 |
| 20260505090120 | 53 | 39 | 5.0 | 7.0 | 0.00 | 0.00 | 0.00 | 80 | 1010.1 |
| 20260505084613 | 53 | 41 | 3.0 | 4.0 | 0.00 | 0.00 | 0.00 | 79 | 1010.2 |
| 20260505083108 | 53 | 11 | 3.0 | 4.0 | 0.00 | 0.00 | 0.00 | 79 | 1010.2 |
| 20260505081603 | 54 | 16 | 4.0 | 5.0 | 0.00 | 0.00 | 0.00 | 79 | 1010.1 |
| 20260505074555 | 54 | 27 | 3.0 | 4.0 | 0.00 | 0.00 | 0.00 | 78 | 1010.1 |
| 20260505073101 | 55 | 34 | 3.0 | 3.0 | 0.00 | 0.00 | 0.00 | 76 | 1009.8 |
| 20260505071613 | 55 | 39 | 0.0 | 3.0 | 0.00 | 0.00 | 0.00 | 76 | 1009.6 |
| 20260505070058 | 55 | 34 | 3.0 | 5.0 | 0.00 | 0.00 | 0.00 | 76 | 1009.8 |
| 20260505064605 | 55 | 46 | 3.0 | 5.0 | 0.00 | 0.00 | 0.00 | 76 | 1009.9 |
| 20260505063100 | 56 | 49 | 5.0 | 7.0 | 0.00 | 0.00 | 0.00 | 75 | 1010.0 |
| 20260505061609 | 56 | 43 | 3.0 | 4.0 | 0.00 | 0.00 | 0.00 | 75 | 1010.1 |
| 20260505060104 | 57 | 37 | 1.0 | 3.0 | 0.00 | 0.00 | 0.00 | 73 | 1010.1 |
| 20260505054556 | 57 | 44 | 2.0 | 3.0 | 0.00 | 0.00 | 0.00 | 70 | 1010.0 |
| 20260505053108 | 57 | 0 | 0.0 | 2.0 | 0.00 | 0.00 | 0.00 | 70 | 1010.1 |
| 20260505051604 | 57 | 41 | 2.0 | 4.0 | 0.00 | 0.00 | 0.00 | 71 | 1010.1 |
| 20260505041602 | 60 | 36 | 1.0 | 2.0 | 0.00 | 0.00 | 0.00 | 64 | 1009.8 |
| 20260505034557 | 59 | 152 | 0.0 | 1.0 | 0.00 | 0.00 | 0.00 | 63 | 1009.7 |
| 20260505033057 | 61 | 25 | 1.0 | 2.0 | 0.00 | 0.00 | 0.00 | 62 | 1009.8 |
| 20260505031556 | 62 | 0 | 1.0 | 4.0 | 0.00 | 0.00 | 0.00 | 59 | 1009.8 |
| 20260505030123 | 62 | 360 | 1.0 | 6.0 | 0.00 | 0.00 | 0.00 | 59 | 1009.8 |
| 20260505024559 | 62 | 31 | 4.0 | 6.0 | 0.00 | 0.00 | 0.00 | 57 | 1009.7 |
| 20260505023055 | 64 | 34 | 3.0 | 6.0 | 0.00 | 0.00 | 0.00 | 55 | 1009.6 |
| 20260505021557 | 66 | 176 | 2.0 | 9.0 | 0.00 | 0.00 | 0.00 | 51 | 1009.5 |
| 20260505020100 | 66 | 208 | 3.0 | 8.0 | 0.00 | 0.00 | 0.00 | 50 | 1009.6 |
| 20260505014610 | 66 | 219 | 5.0 | 11.0 | 0.00 | 0.00 | 0.00 | 50 | 1009.5 |
| 20260505013056 | 67 | 222 | 5.0 | 12.0 | 0.00 | 0.00 | 0.00 | 49 | 1009.6 |
| 20260505011557 | 67 | 220 | 6.0 | 12.0 | 0.00 | 0.00 | 0.00 | 49 | 1009.6 |
| 20260505004600 | 68 | 203 | 5.0 | 10.0 | 0.00 | 0.00 | 0.00 | 48 | 1009.2 |
| 20260505003059 | 69 | 203 | 5.0 | 8.0 | 0.00 | 0.00 | 0.00 | 45 | 1009.0 |
| 20260505001601 | 69 | 203 | 4.0 | 10.0 | 0.00 | 0.00 | 0.00 | 46 | 1008.8 |
| 20260504234555 | 70 | 231 | 5.0 | 13.0 | 0.00 | 0.00 | 0.00 | 44 | 1008.7 |
| 20260504233059 | 71 | 225 | 6.0 | 16.0 | 0.00 | 0.00 | 0.00 | 44 | 1008.6 |
| 20260504231555 | 71 | 224 | 9.0 | 18.0 | 0.00 | 0.00 | 0.00 | 43 | 1008.6 |
| 20260504230054 | 72 | 237 | 6.0 | 16.0 | 0.00 | 0.00 | 0.00 | 43 | 1008.6 |
| 20260504224557 | 72 | 214 | 12.0 | 21.0 | 0.00 | 0.00 | 0.00 | 42 | 1008.6 |
| 20260504223117 | 72 | 190 | 12.0 | 21.0 | 0.00 | 0.00 | 0.00 | 42 | 1008.7 |
| 20260504221558 | 73 | 230 | 11.0 | 18.0 | 0.00 | 0.00 | 0.00 | 42 | 1008.8 |
| 20260504214555 | 73 | 257 | 15.0 | 22.0 | 0.00 | 0.00 | 0.00 | 41 | 1008.8 |
| 20260504213101 | 73 | 212 | 11.0 | 19.0 | 0.00 | 0.00 | 0.00 | 40 | 1008.7 |
| 20260504211651 | 73 | 212 | 12.0 | 21.0 | 0.00 | 0.00 | 0.00 | 40 | 1008.8 |
| 20260504210056 | 73 | 217 | 14.0 | 22.0 | 0.00 | 0.00 | 0.00 | 39 | 1008.7 |
| 20260504204604 | 73 | 238 | 13.0 | 21.0 | 0.00 | 0.00 | 0.00 | 39 | 1008.7 |
| 20260504203107 | 73 | 252 | 10.0 | 18.0 | 0.00 | 0.00 | 0.00 | 40 | 1008.9 |
| 20260504201611 | 72 | 256 | 8.0 | 15.0 | 0.00 | 0.00 | 0.00 | 40 | 1009.2 |
| 20260504200109 | 72 | 187 | 11.0 | 19.0 | 0.00 | 0.00 | 0.00 | 41 | 1009.3 |
| 20260504194606 | 72 | 236 | 12.0 | 20.0 | 0.00 | 0.00 | 0.00 | 42 | 1009.7 |
| 20260504193111 | 71 | 249 | 15.0 | 23.0 | 0.00 | 0.00 | 0.00 | 40 | 1009.8 |
| 20260504191612 | 71 | 221 | 13.0 | 20.0 | 0.00 | 0.00 | 0.00 | 42 | 1010.1 |
| 20260504190109 | 71 | 248 | 11.0 | 17.0 | 0.00 | 0.00 | 0.00 | 42 | 1010.3 |
| 20260504184557 | 71 | 224 | 14.0 | 19.0 | 0.00 | 0.00 | 0.00 | 42 | 1010.5 |
| 20260504183057 | 71 | 217 | 8.0 | 19.0 | 0.00 | 0.00 | 0.00 | 42 | 1010.7 |
| 20260504181604 | 70 | 217 | 9.0 | 19.0 | 0.00 | 0.00 | 0.00 | 44 | 1010.9 |
| 20260504174556 | 70 | 165 | 9.0 | 13.0 | 0.00 | 0.00 | 0.00 | 41 | 1011.3 |
| 20260504173100 | 69 | 219 | 11.0 | 15.0 | 0.00 | 0.00 | 0.00 | 41 | 1011.5 |
| 20260504171601 | 68 | 260 | 9.0 | 18.0 | 0.00 | 0.00 | 0.00 | 46 | 1011.6 |